VE3WXA Weather Reports


Display with metric or nautical units.
time (UTC)temp
F
wind
direction
speed
MPH
gust
MPH
rain 1hr
in
rain 24hr
in
rain mn
in
humidity
%
barometer
mb
20260505102203 56 300 1.0 5.0 0.00 0.03 0.01 89 1000.4
20260505101951 56 0 1.0 5.0 0.00 0.03 0.01 88 1000.5
20260505101203 56 162 1.0 5.0 0.00 0.03 0.01 88 1000.4
20260505100951 57 223 1.0 4.0 0.00 0.03 0.01 88 1000.3
20260505100202 57 349 1.0 7.0 0.00 0.03 0.01 87 1000.3
20260505095702 57 219 2.0 7.0 0.00 0.03 0.01 87 1000.2
20260505095202 57 246 2.0 6.0 0.00 0.03 0.01 87 1000.1
20260505094703 57 350 1.0 6.0 0.00 0.03 0.01 87 999.9
20260505094202 57 230 1.0 5.0 0.00 0.03 0.01 87 999.9
20260505093702 57 303 2.0 8.0 0.00 0.03 0.01 86 999.8
20260505093202 57 137 2.0 8.0 0.00 0.03 0.01 86 999.8
20260505092702 57 214 2.0 7.0 0.00 0.03 0.01 86 999.7
20260505092202 57 164 2.0 6.0 0.00 0.03 0.01 86 999.7
20260505091951 57 307 2.0 6.0 0.00 0.03 0.01 86 999.6
20260505091450 57 289 2.0 6.0 0.00 0.03 0.01 86 999.6
20260505090703 58 245 2.0 7.0 0.00 0.03 0.01 86 999.5
20260505090202 58 192 2.0 7.0 0.00 0.03 0.01 85 999.5
20260505090031 58 175 2.0 7.0 0.00 0.03 0.01 85 999.4
20260505090026 58 221 2.0 7.0 0.00 0.03 0.01 85 999.5
20260505084949 58 127 2.0 7.0 0.00 0.03 0.01 85 999.4
20260505084244 58 220 1.0 7.0 0.00 0.03 0.01 84 999.2
20260505084229 58 225 1.0 7.0 0.00 0.03 0.01 85 999.4
20260505083203 58 0 1.0 5.0 0.00 0.03 0.01 84 999.2
20260505082702 58 270 2.0 5.0 0.00 0.03 0.01 84 999.3
20260505082449 58 187 1.0 5.0 0.00 0.03 0.01 84 999.2
20260505081702 58 152 0.0 3.0 0.00 0.03 0.01 83 999.4
20260505081202 58 0 1.0 5.0 0.00 0.03 0.01 83 999.1
20260505080702 59 0 1.0 6.0 0.00 0.03 0.01 82 999.0
20260505080202 59 265 2.0 6.0 0.00 0.03 0.01 82 998.5
20260505075950 59 236 2.0 5.0 0.00 0.03 0.01 82 998.5
20260505075202 59 0 2.0 6.0 0.00 0.03 0.01 81 998.4
20260505074745 59 280 2.0 8.0 0.00 0.03 0.01 80 998.4
20260505074730 59 261 2.0 7.0 0.00 0.03 0.01 81 998.4
20260505073702 59 197 2.0 8.0 0.00 0.03 0.01 80 998.5
20260505073202 59 206 2.0 8.0 0.00 0.03 0.01 80 998.6
20260505073024 59 0 2.0 8.0 0.01 0.03 0.01 80 998.7
20260505072729 59 291 2.0 7.0 0.00 0.03 0.01 80 998.7
20260505071701 60 0 2.0 8.0 0.01 0.03 0.01 79 998.7
20260505071202 60 247 2.0 8.0 0.01 0.03 0.01 79 998.7
20260505070945 60 271 2.0 6.0 0.01 0.03 0.01 79 998.6
20260505070202 60 294 2.0 10.0 0.01 0.03 0.01 79 998.6
20260505065702 60 105 2.0 10.0 0.01 0.03 0.01 79 998.7
20260505065202 60 227 2.0 8.0 0.01 0.03 0.01 79 998.9
20260505064702 60 323 2.0 8.0 0.01 0.03 0.01 79 998.7
20260505064202 61 242 2.0 6.0 0.01 0.03 0.01 79 998.7
20260505063701 61 239 2.0 6.0 0.01 0.03 0.01 78 998.9
20260505063204 62 328 3.0 7.0 0.01 0.03 0.00 77 998.9
20260505062945 62 217 3.0 8.0 0.00 0.02 0.00 76 999.0
20260505062444 62 172 3.0 8.0 0.00 0.02 0.00 75 998.7
20260505061703 62 163 3.0 10.0 0.00 0.02 0.00 75 999.0
20260505061202 62 316 3.0 10.0 0.00 0.02 0.00 75 999.0
20260505060702 62 183 3.0 9.0 0.00 0.02 0.00 74 999.1
20260505060203 63 186 3.0 10.0 0.00 0.02 0.00 74 999.3
20260505055702 63 235 4.0 11.0 0.00 0.02 0.00 74 999.4
20260505055203 63 229 5.0 13.0 0.00 0.02 0.00 73 999.4
20260505054703 63 168 4.0 13.0 0.00 0.02 0.00 73 999.4
20260505054203 63 238 4.0 13.0 0.00 0.02 0.00 73 999.4
20260505053703 62 229 4.0 11.0 0.00 0.02 0.00 73 999.4
20260505053203 62 218 3.0 11.0 0.00 0.02 0.00 73 999.2
20260505052702 62 243 3.0 8.0 0.00 0.02 0.00 75 999.4
20260505052202 62 190 3.0 9.0 0.00 0.02 0.00 75 999.4
20260505051703 61 205 4.0 9.0 0.00 0.02 0.00 76 999.5
20260505051204 62 228 4.0 9.0 0.00 0.02 0.00 76 999.5
20260505050704 62 232 4.0 9.0 0.00 0.02 0.00 75 999.5
20260505050203 61 243 4.0 8.0 0.00 0.02 0.00 76 999.4
20260505041703 60 241 4.0 9.0 0.00 0.02 0.00 79 999.6
20260505041203 60 229 4.0 9.0 0.00 0.02 0.00 80 999.6
20260505040704 60 229 4.0 9.0 0.00 0.02 0.00 80 999.6
20260505040446 60 219 4.0 9.0 0.00 0.02 0.00 80 999.6
20260505035702 60 238 4.0 9.0 0.00 0.02 0.02 80 999.6
20260505035444 60 233 4.0 9.0 0.00 0.02 0.02 81 999.7
20260505034702 60 235 4.0 9.0 0.00 0.02 0.02 81 999.8
20260505034445 61 207 4.0 10.0 0.00 0.02 0.02 80 999.9
20260505033702 61 150 5.0 10.0 0.00 0.02 0.02 79 999.8
20260505033203 61 211 4.0 9.0 0.00 0.02 0.02 78 999.8
20260505032703 61 230 4.0 9.0 0.00 0.02 0.02 78 1000.0
20260505032202 61 196 4.0 8.0 0.00 0.02 0.02 77 1000.0
20260505031702 61 91 4.0 10.0 0.00 0.02 0.02 77 1000.1
20260505031444 61 239 4.0 10.0 0.00 0.02 0.02 77 1000.1
20260505030702 61 225 4.0 10.0 0.00 0.02 0.02 78 1000.2
20260505030201 61 240 4.0 10.0 0.00 0.02 0.02 77 1000.3
20260505025946 62 218 4.0 9.0 0.00 0.02 0.02 77 1000.3
20260505025204 62 212 4.0 9.0 0.00 0.02 0.02 77 1000.4
20260505024702 62 207 5.0 10.0 0.00 0.02 0.02 77 1000.4
20260505024201 62 221 5.0 10.0 0.00 0.02 0.02 76 1000.3
20260505023701 62 225 5.0 11.0 0.00 0.02 0.02 76 1000.3
20260505023202 62 227 6.0 11.0 0.02 0.02 0.02 75 1000.3
20260505022701 62 266 6.0 18.0 0.02 0.02 0.02 75 1000.2
20260505022201 62 218 5.0 18.0 0.02 0.02 0.02 74 1000.3
20260505021701 62 215 5.0 11.0 0.02 0.02 0.02 75 1000.4
20260505021202 62 235 4.0 11.0 0.02 0.02 0.02 74 1000.2
20260505020702 62 229 4.0 9.0 0.02 0.02 0.02 75 1000.4
20260505020202 62 219 4.0 9.0 0.02 0.02 0.02 75 1000.5
20260505015702 62 183 4.0 9.0 0.02 0.02 0.02 76 1000.5
20260505015203 62 217 3.0 9.0 0.02 0.02 0.02 76 1000.5
20260505014703 62 221 2.0 9.0 0.02 0.02 0.02 76 1000.7
20260505014203 63 165 1.0 4.0 0.02 0.02 0.02 77 1000.9
20260505013950 64 0 1.0 5.0 0.02 0.02 0.02 75 1001.0
20260505013202 65 0 2.0 9.0 0.00 0.00 0.00 70 1000.9
20260505012703 65 295 2.0 9.0 0.00 0.00 0.00 68 1000.7
20260505012203 66 221 4.0 11.0 0.00 0.00 0.00 70 1000.4
20260505011703 66 261 5.0 11.0 0.00 0.00 0.00 68 999.7
20260505011203 66 226 4.0 10.0 0.00 0.00 0.00 68 999.7
20260505010702 66 216 4.0 9.0 0.00 0.00 0.00 68 999.2
20260505010202 66 189 3.0 10.0 0.00 0.00 0.00 67 998.9
20260505005950 66 201 3.0 10.0 0.00 0.00 0.00 67 998.9
20260505005202 66 224 3.0 9.0 0.00 0.00 0.00 66 999.0
20260505004702 67 189 3.0 6.0 0.00 0.00 0.00 66 999.0
20260505004202 67 234 3.0 8.0 0.00 0.00 0.00 65 998.9
20260505003702 67 220 3.0 8.0 0.00 0.00 0.00 64 998.9
20260505003202 68 222 3.0 8.0 0.00 0.00 0.00 64 998.9
20260505002702 68 224 3.0 7.0 0.00 0.00 0.00 63 999.0
20260505002238 69 242 4.0 8.0 0.00 0.00 0.00 62 999.0
20260505002228 69 241 3.0 7.0 0.00 0.00 0.00 62 999.0
20260505001203 69 194 4.0 10.0 0.00 0.00 0.00 61 999.0
20260505000702 69 300 4.0 13.0 0.00 0.00 0.00 61 999.1
20260505000204 69 228 4.0 13.0 0.00 0.00 0.00 60 999.1
20260504235949 70 203 4.0 13.0 0.00 0.00 0.00 60 999.0
20260504235202 70 246 4.0 11.0 0.00 0.00 0.00 59 999.1
20260504234703 70 253 5.0 11.0 0.00 0.00 0.00 58 999.0
20260504234203 70 231 5.0 11.0 0.00 0.00 0.00 58 999.0
20260504233702 70 221 5.0 14.0 0.00 0.00 0.00 58 999.0
20260504233202 71 266 5.0 14.0 0.00 0.00 0.00 57 998.9
20260504232703 71 227 5.0 10.0 0.00 0.00 0.00 57 999.1
20260504232203 71 200 6.0 11.0 0.00 0.00 0.00 56 999.1
20260504231703 71 222 6.0 15.0 0.00 0.00 0.00 54 999.1
20260504231203 72 214 7.0 15.0 0.00 0.00 0.00 54 999.2
20260504230704 72 233 7.0 14.0 0.00 0.00 0.00 53 999.2
20260504230203 72 218 6.0 14.0 0.00 0.00 0.00 52 999.3
20260504225704 72 200 5.0 14.0 0.00 0.00 0.00 51 999.4
20260504225204 72 284 5.0 14.0 0.00 0.00 0.00 51 999.5
20260504224704 72 196 6.0 13.0 0.00 0.00 0.00 52 999.6
20260504224448 72 154 6.0 13.0 0.00 0.00 0.00 50 999.7
20260504223703 72 220 6.0 12.0 0.00 0.00 0.00 50 999.7
20260504223203 72 182 6.0 12.0 0.00 0.00 0.00 52 999.8
20260504222704 72 154 7.0 14.0 0.00 0.00 0.00 53 999.9
20260504222203 72 225 7.0 14.0 0.00 0.00 0.00 53 999.9
20260504221738 72 268 7.0 16.0 0.00 0.00 0.00 53 999.9
20260504221728 72 196 7.0 16.0 0.00 0.00 0.00 53 999.9
20260504220949 72 223 7.0 14.0 0.00 0.00 0.00 53 999.9
20260504220202 72 268 8.0 16.0 0.00 0.00 0.00 53 1000.0
20260504215702 72 294 7.0 16.0 0.00 0.00 0.00 52 1000.1
20260504215203 72 211 8.0 18.0 0.00 0.00 0.00 53 999.9
20260504214702 72 232 8.0 18.0 0.00 0.00 0.00 52 1000.1
20260504214202 72 189 8.0 15.0 0.00 0.00 0.00 52 999.9
20260504213702 72 224 8.0 18.0 0.00 0.00 0.00 52 999.8
20260504213202 71 213 8.0 18.0 0.00 0.00 0.00 52 1000.1
20260504212950 72 136 8.0 15.0 0.00 0.00 0.00 51 1000.1
20260504212202 72 200 8.0 19.0 0.00 0.00 0.00 51 1000.1
20260504211703 71 160 9.0 21.0 0.00 0.00 0.00 51 1000.1
20260504211202 72 236 8.0 21.0 0.00 0.00 0.00 51 1000.3
20260504210703 72 239 7.0 17.0 0.00 0.00 0.00 52 1000.3
20260504210203 72 180 7.0 15.0 0.00 0.00 0.00 51 1000.3
20260504205702 73 184 7.0 15.0 0.00 0.00 0.00 51 1000.3
20260504205201 73 218 7.0 14.0 0.00 0.00 0.00 50 1000.2
20260504204700 73 207 8.0 15.0 0.00 0.00 0.00 51 1000.3
20260504204200 73 211 6.0 15.0 0.00 0.00 0.00 51 1000.3
20260504203701 74 261 5.0 12.0 0.00 0.00 0.00 50 1000.1
20260504203521 74 198 6.0 12.0 0.00 0.00 0.00 46 1000.3
20260504203517 74 144 5.0 12.0 0.00 0.00 0.00 44 1000.0
20260504202200 74 249 7.0 15.0 0.00 0.00 0.00 46 1000.3
20260504201701 74 280 7.0 15.0 0.00 0.00 0.00 47 1000.4
20260504201205 74 229 6.0 13.0 0.00 0.00 0.00 47 1000.5
20260504200703 74 189 7.0 15.0 0.00 0.00 0.00 49 1000.4
20260504200202 74 187 6.0 15.0 0.00 0.00 0.00 44 1000.0
20260504195702 74 212 6.0 14.0 0.00 0.00 0.00 47 1000.0
20260504195201 74 190 6.0 17.0 0.00 0.00 0.00 48 1000.2
20260504194701 74 212 5.0 17.0 0.00 0.00 0.00 45 1000.2
20260504194202 74 194 6.0 18.0 0.00 0.00 0.00 46 1000.1
20260504193701 74 206 7.0 18.0 0.00 0.00 0.00 45 1000.4
20260504193202 74 212 6.0 17.0 0.00 0.00 0.00 44 1000.4
20260504192701 74 204 6.0 17.0 0.00 0.00 0.00 45 1000.4
20260504192201 74 212 5.0 13.0 0.00 0.00 0.00 47 1000.4
20260504191701 74 248 5.0 12.0 0.00 0.00 0.00 45 1000.5
20260504191201 74 233 6.0 13.0 0.00 0.00 0.00 45 1000.4
20260504190702 74 242 6.0 15.0 0.00 0.00 0.00 43 1000.5
20260504190201 74 235 6.0 15.0 0.00 0.00 0.00 44 1000.4
20260504185701 74 322 6.0 12.0 0.00 0.00 0.00 45 1000.5
20260504185201 74 226 6.0 12.0 0.00 0.00 0.00 47 1000.7
20260504184701 74 237 5.0 14.0 0.00 0.00 0.00 46 1000.7
20260504184201 74 298 4.0 14.0 0.00 0.00 0.00 45 1000.7
20260504183700 74 234 5.0 12.0 0.00 0.00 0.00 44 1000.7
20260504183200 74 227 6.0 15.0 0.00 0.00 0.00 45 1000.6
20260504182944 74 229 6.0 15.0 0.00 0.00 0.00 46 1000.8
20260504182201 74 274 5.0 13.0 0.00 0.00 0.00 47 1000.8
20260504181944 73 199 6.0 16.0 0.00 0.00 0.00 47 1000.9
20260504181201 73 218 6.0 16.0 0.00 0.00 0.00 47 1000.9
20260504180701 73 56 5.0 12.0 0.00 0.00 0.00 47 1001.0
20260504180237 73 246 5.0 14.0 0.00 0.00 0.00 49 1001.0
20260504180227 73 207 4.0 12.0 0.00 0.00 0.00 47 1001.0
20260504175200 73 83 4.0 14.0 0.00 0.00 0.00 48 1000.9
20260504174700 72 290 4.0 13.0 0.00 0.00 0.00 48 1001.0
20260504174446 72 302 5.0 13.0 0.00 0.00 0.00 49 1001.3
20260504173702 72 274 5.0 15.0 0.00 0.00 0.00 50 1001.3
20260504173202 72 192 5.0 15.0 0.00 0.00 0.00 48 1001.4
20260504172701 72 207 5.0 13.0 0.00 0.00 0.00 51 1001.4
20260504172201 72 290 4.0 13.0 0.00 0.00 0.00 51 1001.4
20260504171702 72 217 4.0 10.0 0.00 0.00 0.00 50 1001.5
20260504171201 72 233 5.0 12.0 0.00 0.00 0.00 50 1001.5
20260504170701 71 322 5.0 12.0 0.00 0.00 0.00 51 1001.6
20260504170203 71 110 4.0 12.0 0.00 0.00 0.00 51 1001.7
20260504160201 69 224 4.0 9.0 0.00 0.00 0.00 54 1001.9
20260504150701 65 207 5.0 10.0 0.00 0.00 0.00 59 1002.4
20260504150200 64 271 5.0 12.0 0.00 0.00 0.00 61 1002.4
20260504141200 62 220 4.0 10.0 0.00 0.00 0.00 63 1002.7
20260504140700 61 195 4.0 11.0 0.00 0.00 0.00 64 1002.8
20260504140201 61 243 5.0 11.0 0.00 0.00 0.00 64 1002.9
20260504130701 57 98 4.0 11.0 0.00 0.00 0.00 70 1003.4
20260504130202 57 204 4.0 11.0 0.00 0.00 0.00 70 1003.4
20260504120202 51 197 5.0 9.0 0.00 0.00 0.00 78 1004.1
20260504110701 48 210 4.0 9.0 0.00 0.00 0.00 81 1004.1
20260504110203 48 245 4.0 9.0 0.00 0.00 0.00 81 1004.2